Tracking 21473 objects as of 19-Sep-2020
HD Live streaming from Space Station
objects crossing your sky now

FREGAT R/B

Track FREGAT R/B now!
10-day predictions


NORAD ID: 40352
Int'l Code: 2014-083E
Perigee: 7,677.8 km
Apogee: 7,702.8 km
Inclination: 0.1 °
Period: 276.6 minutes
Semi major axis: 14061 km
RCS: Unknown
Launch date: December 18, 2014
Source: Commonwealth of Independent States (former USSR) (CIS)
Launch site: FRENCH GUIANA (FRGUI)

Note: This is a ROCKET BODY
aabbcc
Your satellite tracking list
Your tracking list is empty




NASA's NSSDC Master Catalog

Two Line Element Set (TLE):
1 40352U 14083E   20261.97847231 -.00000017 +00000-0 +00000-0 0  9991
2 40352 000.1217 012.0112 0008875 136.2538 211.7911 05.20671349109391
Source of the keplerian elements: AFSPC